COSMOS 2461 (735) (36401 NORAD) Tracking and Keplerian Element Data

This shows tracking and keplerian element data for the satellite.

Feedback or suggestion? Click here.




ElementValue
Catalog36401
NameCOSMOS 2461 (735)
Epoch Orbit6785
Epoch Day323.0996977
Epoch Year2018
RAAN47.1869
Inclination65.6607
Eccentricity0.0006265
Argument of Perigee79.752
Mean Anonmoly356.1291
Mean Motion2.13101976
Decay Rate-5.5E-07
L11 36401U 10007B 18323.09969770 -.00000055 00000-0 10000-3 0 9991
L22 36401 65.6607 47.1869 0006265 79.7520 356.1291 2.13101976 67853

Live tracking and technical data element details for COSMOS 2461 (735) (NORAD 36401). COSMOS 2461 (735) can be tracked NOW for your location showing map with azimuth and elevation plus other details from your city location.

Track the satellite on the map from your city or location and see movement details for azimuth, elevation, latitude, longitude, range, height, and movement on the map or in text.







IsCatalogInMostPopularTable: catalog: 36401, numindb: 59
Update: records affected: 1



GetName: 36401 COSMOS 2461 (735)

Hit Count: updated at: Wed, 21 Nov 2018 05:41:56 GMT